Flag for Uruguay Weather past 2 weeks in Florida, Uruguay

Now
54 °F

Clear.


Feels Like: 50 °F
Forecast: 49 / 69 °F
Wind: 12 mph from Northeast

Location: Carrasco

Current Time: Sep 22, 2014 at 4:26:39 AM

Latest Report: Sep 22, 2014 at 4:00 AM


Visibility: 10 mi

Pressure: 30.09 "Hg

Humidity: 82%

Dew point: 48 °F

Location of FloridaLocation

Historic Weather in Florida — Graph

°F

Florida temperature yesterday

Maximum temperature yesterday: 63 °F (at 11:00 AM)
Minimum temperature yesterday: 54 °F (at 11:00 PM)
Average temperature yesterday: 58 °F

Past Weeks' High & Low Weather Summary

 TemperatureHumidityPressure
High75 °F (Sep 8, 4:00 PM)100% (Sep 9, 10:00 AM)30.18 "Hg (Sep 9, 10:00 AM)
Low43 °F (Sep 11, 7:00 AM)26% (Sep 7, 3:00 PM)29.47 "Hg (Sep 9, 9:00 AM)
Average58 °F78%30.00 "Hg
* Reported Sep 7 3:00 AM — Sep 22 3:00 AM, Florida, Weather by CustomWeather, © 2014

Note: Actual official high and low records may vary slightly from our data, if they occured in-between our weather recording intervals... More about our weather records

Advertising

Florida weather history for previous 24 hours

 ConditionsComfort  
Time TempWeatherWind HumidityBarometerVisibility
3:00 AM
Sep 22
54 °FClear.10 mph82%30.09 "Hg10 mi
2:00 AM54 °FClear.9 mph82%30.12 "Hg10 mi
1:00 AM54 °FClear.13 mph82%30.12 "Hg10 mi
12:00 AM54 °FClear.8 mph88%30.12 "Hg10 mi
11:00 PM
Sep 21
54 °FClear.10 mph88%30.15 "Hg10 mi
10:00 PM55 °FClear.10 mph82%30.15 "Hg10 mi
9:00 PM57 °FClear.13 mph77%30.15 "Hg10 mi
8:00 PM59 °FClear.15 mph77%30.15 "Hg10 mi
7:00 PM59 °FClear.17 mph77%30.15 "Hg10 mi
6:00 PM59 °FClear.14 mphN/A30.15 "Hg10 mi
5:00 PM61 °FSunny.16 mph59%30.12 "Hg10 mi
4:00 PM63 °FScattered clouds.16 mph59%30.15 "HgN/A
3:00 PM63 °FScattered clouds.14 mph59%30.15 "HgN/A
2:00 PM63 °FScattered clouds.17 mph59%30.15 "HgN/A
1:00 PM63 °FScattered clouds.14 mph68%30.18 "HgN/A
12:00 PM61 °FScattered clouds.12 mph72%30.18 "HgN/A
11:00 AM63 °FPartly sunny.13 mph68%30.18 "HgN/A
10:00 AM61 °FPartly sunny.8 mph72%30.18 "HgN/A
9:00 AM59 °FBroken clouds.10 mph82%30.15 "HgN/A
8:00 AM57 °FPartly sunny.8 mph82%30.15 "HgN/A
7:00 AM55 °FPartly sunny.8 mph88%30.12 "HgN/A
6:00 AM55 °FPartly sunny.7 mph88%30.09 "HgN/A
5:00 AM55 °FPassing clouds.8 mph88%30.09 "HgN/A
4:00 AM55 °FPartly cloudy.8 mph94%30.09 "HgN/A
Weather by CustomWeather, © 2014

See weather overviewHow to use our weather pages